[[{"header":{"parameterUnit":"m.s-1","parameterCategory":1,"la1":30.2991,"la2":30.254,"lo1":-89.0895,"lo2":-89.0444,"dy":0.0017,"dx":0.0017,"nx":28,"ny":28,"refTime":"2024-02-23T03:00:00:Z","depth":0,"parameterNumber":2,"parameterNumberName":"U-component_of_WINDS"},"data":[0,0,0,0,0,0,0,0,0,0,0,0,0,0,0,0,0,0,0,0,0,0,0,0,0,0,0,0,0,0,0,0,0,0,0,0,0,0,0,0,0,0,0,0,0,0,0,0,0,0,0,0,0,0,0,0,0,0,2.8601,2.8602,0,2.8643,2.8643,2.8644,2.861,2.8608,2.8607,2.8606,2.8649,2.8652,2.8654,0,0,0,0,0,0,0,0,0,0,0,0,0,2.8494,2.8497,2.8601,2.8602,2.8602,2.8643,2.8643,2.8644,2.861,2.8608,2.8607,2.8605,2.8648,2.8651,2.8654,0,0,0,0,0,0,0,0,0,0,0,0,0,2.8539,2.8497,2.8601,2.859,2.859,2.8643,2.8643,2.8644,2.861,2.8608,2.8606,2.8604,2.8647,2.8651,2.8655,2.8721,0,0,2.8666,2.8668,0,0,0,0,0,0,0,0,2.8536,2.8543,2.8591,2.8591,2.859,2.8619,2.8622,2.867,2.8611,2.8603,2.8606,2.8603,2.8641,2.8645,2.8658,2.8723,2.8725,2.8667,2.8669,2.8671,2.8672,0,0,0,0,0,0,0,2.8533,2.8541,2.8618,2.8592,2.8592,2.8584,2.8588,2.8631,2.8633,2.8603,2.8601,2.8606,2.864,2.8654,2.8658,2.8726,2.8667,2.867,2.8672,2.8674,2.885,2.8852,0,0,0,0,0,0,2.8531,2.8539,2.8616,2.8619,2.8558,2.8588,2.8592,2.8612,2.8633,2.8634,2.8608,2.8604,2.8649,2.8654,2.866,2.8741,2.867,2.8674,2.8676,2.8848,2.885,2.8853,0,0,0,0,0,0,2.8529,2.8538,2.8615,2.8578,2.8587,2.8592,2.8614,2.8614,2.8628,2.8636,2.8637,2.8621,2.8647,2.8655,2.8707,2.8742,2.8676,2.8679,2.8845,2.8848,2.8852,2.8901,0,0,0,0,0,0,2.8526,2.8538,2.8562,2.8579,2.8589,2.866,2.8616,2.8616,2.8634,2.863,2.8649,2.865,2.8646,2.8701,2.871,2.8746,2.8682,2.8842,2.8846,2.8851,2.8897,2.8906,2.8915,0,0,0,0,0,2.8522,2.8574,2.8564,2.8573,2.862,2.8662,2.8668,2.8662,2.8637,2.8662,2.8668,2.865,2.8736,2.8707,2.8717,2.8754,2.8839,2.8845,2.885,2.8893,2.8905,2.8914,0,0,0,0,0,0,2.8562,2.8576,2.8565,2.8624,2.8642,2.8656,2.8688,2.8674,2.87,2.8695,2.8687,2.8692,2.8747,2.8755,2.8722,2.882,2.8784,2.8792,2.8813,2.8824,2.8833,2.883,2.8685,0,0,0,0,0,2.8577,2.861,2.8621,2.8672,2.8682,2.8683,2.8701,2.8695,2.8714,2.8722,2.8731,2.8751,2.8782,2.8803,2.8833,2.8898,2.8902,2.8928,2.8937,2.8944,2.8951,2.8989,2.9001,2.8871,2.8871,2.8871,0,0,2.861,2.8622,2.8643,2.868,2.8694,2.8729,2.869,2.8728,2.8754,2.8727,2.8778,2.8786,2.8807,2.8866,2.8893,2.8875,2.8988,2.8951,2.8957,2.896,2.8995,2.9008,2.9019,2.8875,2.8874,2.8874,0,0,2.8687,2.8699,2.8744,2.8758,2.8779,2.878,2.8791,2.8808,2.8812,2.8862,2.8844,2.8875,2.8929,2.8946,2.8961,2.9047,2.9031,2.9056,2.9104,2.914,2.915,2.9159,2.9191,2.9203,2.9063,2.9063,2.9063,0,2.8725,2.8776,2.8768,2.8808,2.8826,2.8804,2.885,2.8864,2.8894,2.8907,2.8887,2.8956,2.8968,2.9032,2.9053,2.9066,2.9079,2.9055,2.9149,2.9158,2.9166,2.9197,2.9209,2.9066,2.9066,2.9066,2.9065,0,2.8823,2.8859,2.8893,2.8922,2.8944,2.8987,2.8986,2.9009,2.9001,2.9005,2.9057,2.9072,2.9105,2.9119,2.9111,2.9183,2.9171,2.915,2.9114,2.9182,2.9211,2.9223,2.9071,2.907,2.9069,2.9068,0,0,2.8926,2.8952,2.8965,2.8979,2.9001,2.9029,2.9072,2.9104,2.9125,2.9146,2.9183,2.923,2.9211,2.9228,2.9223,2.9254,2.9324,2.923,2.923,2.9248,2.9405,2.9422,2.9436,2.9313,2.9316,2.9317,2.9404,0,2.9006,2.908,2.9075,2.9144,2.9179,2.9159,2.9196,2.9214,2.9219,2.9249,2.9255,2.9289,2.926,2.9271,2.9302,2.9309,2.9356,2.9302,2.9349,2.9351,2.9346,2.9451,2.9469,2.955,2.9415,2.9417,2.9419,0,2.9109,2.9135,2.9208,2.9227,2.9241,2.9275,2.9305,2.9334,2.9355,2.9356,2.9377,2.9366,2.9411,2.9373,2.9435,2.9399,2.9417,2.9424,2.9427,2.9432,2.939,2.9461,2.9576,2.9589,2.9436,2.9435,2.9433,0,2.9179,2.9232,2.9284,2.9296,2.9319,2.9343,2.9354,2.9373,2.9393,2.942,2.9433,2.9465,2.9482,2.9507,2.9506,2.9478,2.957,2.9531,2.9573,2.9574,2.9594,2.9593,2.9716,2.9604,2.9604,2.9604,2.9603,0,2.927,2.9316,2.9316,2.9348,2.94,2.9393,2.9445,2.9453,2.947,2.9504,2.9488,2.9521,2.9516,2.9549,2.9549,2.9601,2.9609,2.9612,2.9612,2.9615,2.9615,2.9628,2.9623,2.9607,2.9606,2.9605,2.9605,0,2.9358,2.9359,2.9414,2.9432,2.9437,2.9475,2.949,2.9521,2.9525,2.9568,2.9578,2.9584,2.9622,2.9623,2.9666,2.9666,2.9731,2.9723,2.9724,2.9723,2.9766,2.9763,2.9903,2.9922,2.9796,2.9797,2.9798,0,2.9416,2.9451,2.9473,2.9495,2.9507,2.9542,2.9563,2.9558,2.9581,2.9609,2.9637,2.9673,2.9702,2.9764,2.9773,2.9807,2.9801,2.9848,2.9806,2.9808,2.9804,2.9803,2.9807,2.9856,2.9858,2.9859,2.986,0,2.952,2.952,2.955,2.9582,2.9608,2.9633,2.9655,2.9674,2.9673,2.9699,2.9738,2.9761,2.9806,2.9843,2.9876,2.9888,2.9875,2.9873,2.9885,2.9889,2.9888,2.9891,2.9748,2.987,2.9869,2.9868,2.9867,2.9867,2.9596,2.9628,2.9648,2.9684,2.9701,2.9723,2.9753,2.9761,2.9793,2.983,2.9825,2.9869,2.9891,2.9934,2.9949,2.9983,2.9967,2.9984,2.9989,2.9994,2.9999,2.9882,2.9989,2.9989,2.9989,2.9988,2.9988,0,2.9702,2.9714,2.9747,2.978,2.9808,2.9792,2.9817,2.9842,2.9881,2.9902,2.9932,2.9977,3.0014,3.0026,3.0061,3.0087,3.0082,3.0097,3.0096,3.0099,3.001,2.9997,3.0101,3.01,3.01,3.01,3.01,3.01,2.976,2.9813,2.9815,2.9876,2.9888,2.9931,2.9947,2.9968,2.9985,3.0037,3.0067,3.0075,3.0093,3.013,3.0163,3.0166,3.0181,3.0199,3.0199,3.0116,3.0105,3.0094,3.0082,3.0201,3.0202,3.0285,3.0286,3.0287]},{"header":{"parameterUnit":"m.s-1","parameterCategory":1,"la1":30.2991,"la2":30.254,"lo1":-89.0895,"lo2":-89.0444,"dy":0.0017,"dx":0.0017,"nx":28,"ny":28,"refTime":"2024-02-23T03:00:00:Z","depth":0,"parameterNumber":3,"parameterNumberName":"V-component_of_WINDS"},"data":[0,0,0,0,0,0,0,0,0,0,0,0,0,0,0,0,0,0,0,0,0,0,0,0,0,0,0,0,0,0,0,0,0,0,0,0,0,0,0,0,0,0,0,0,0,0,0,0,0,0,0,0,0,0,0,0,0,0,-2.9792,-2.9793,0,-2.9861,-2.9862,-2.9863,-2.9876,-2.9876,-2.9875,-2.9874,-2.9948,-2.995,-2.9953,0,0,0,0,0,0,0,0,0,0,0,0,0,-2.9675,-2.9677,-2.9792,-2.9793,-2.9794,-2.9861,-2.9862,-2.9863,-2.9876,-2.9876,-2.9875,-2.9874,-2.9947,-2.995,-2.9953,0,0,0,0,0,0,0,0,0,0,0,0,0,-2.9734,-2.9678,-2.9792,-2.9809,-2.9811,-2.9861,-2.9862,-2.9863,-2.9876,-2.9876,-2.9875,-2.9874,-2.9946,-2.995,-2.9953,-2.9993,0,0,-2.9965,-2.9966,0,0,0,0,0,0,0,0,-2.973,-2.9738,-2.9805,-2.9808,-2.981,-2.9859,-2.9848,-2.9907,-2.9877,-2.9852,-2.9874,-2.9874,-2.9919,-2.9925,-2.994,-2.9996,-2.9999,-2.9965,-2.9967,-2.9969,-2.997,0,0,0,0,0,0,0,-2.9726,-2.9735,-2.982,-2.9806,-2.9809,-2.9814,-2.9821,-2.9859,-2.9889,-2.9854,-2.9855,-2.9863,-2.992,-2.9936,-2.9942,-3.0001,-2.9965,-2.9968,-2.997,-2.9972,-3.0094,-3.0095,0,0,0,0,0,0,-2.9719,-2.9731,-2.9818,-2.9822,-2.9767,-2.9816,-2.9825,-2.9844,-2.9889,-2.9895,-2.9863,-2.9863,-2.993,-2.9937,-2.9944,-2.9995,-2.9969,-2.9972,-2.9974,-3.0093,-3.0095,-3.0096,0,0,0,0,0,0,-2.9716,-2.9726,-2.9815,-2.9777,-2.9789,-2.9819,-2.9841,-2.9846,-2.9862,-2.9896,-2.9902,-2.9874,-2.993,-2.9939,-2.9981,-2.9997,-2.9974,-2.9977,-3.0092,-3.0094,-3.0095,-3.0095,0,0,0,0,0,0,-2.9713,-2.9725,-2.974,-2.9777,-2.979,-2.9849,-2.9842,-2.9848,-2.9868,-2.9868,-2.9908,-2.9913,-2.993,-2.9975,-2.9985,-3.0002,-2.998,-3.0091,-3.0093,-3.0095,-3.0093,-3.0096,-3.0098,0,0,0,0,0,-2.9709,-2.9737,-2.974,-2.9751,-2.9809,-2.985,-2.9858,-2.9876,-2.9869,-2.9885,-2.9907,-2.9912,-2.9994,-2.9979,-2.999,-3.0009,-3.009,-3.0092,-3.0095,-3.0092,-3.0095,-3.0098,0,0,0,0,0,0,-2.9702,-2.9742,-2.9746,-2.9788,-2.9815,-2.9852,-2.9872,-2.9878,-2.9909,-2.9908,-2.993,-2.9939,-2.9979,-2.9998,-2.9981,-3.005,-3.0042,-3.0046,-3.0036,-3.004,-3.0042,-3.0037,-2.9983,0,0,0,0,0,-2.9705,-2.9734,-2.9768,-2.9801,-2.9815,-2.9841,-2.9859,-2.9871,-2.9901,-2.9913,-2.9938,-2.9967,-3.0,-3.0021,-3.0052,-3.0096,-3.0106,-3.0114,-3.0117,-3.0118,-3.0122,-3.0148,-3.0153,-3.0103,-3.0103,-3.0103,0,0,-2.9712,-2.9738,-2.9755,-2.9801,-2.9823,-2.9854,-2.9851,-2.9883,-2.9906,-2.9918,-2.9959,-2.9978,-3.0013,-3.0056,-3.0076,-3.0073,-3.0138,-3.0121,-3.0123,-3.0126,-3.0151,-3.0156,-3.016,-3.0105,-3.0105,-3.0104,0,0,-2.9741,-2.9763,-2.9793,-2.9816,-2.985,-2.9867,-2.9875,-2.9911,-2.9924,-2.9965,-2.9975,-3.0003,-3.0058,-3.0083,-3.0103,-3.0141,-3.0148,-3.0151,-3.0164,-3.0189,-3.0193,-3.0197,-3.0212,-3.0217,-3.0155,-3.0155,-3.0155,0,-2.9746,-2.9791,-2.9809,-2.984,-2.9861,-2.9872,-2.9904,-2.9925,-2.9969,-2.9983,-2.9978,-3.0048,-3.0072,-3.0122,-3.0131,-3.0147,-3.0157,-3.0147,-3.0191,-3.0195,-3.0198,-3.0213,-3.0218,-3.0155,-3.0155,-3.0155,-3.0155,0,-2.9796,-2.9827,-2.9848,-2.9889,-2.9912,-2.9943,-2.9967,-2.9988,-2.9997,-3.0016,-3.0058,-3.0087,-3.0126,-3.0138,-3.0148,-3.019,-3.0187,-3.0186,-3.0178,-3.0203,-3.0217,-3.0223,-3.0155,-3.0155,-3.0155,-3.0155,0,0,-2.9823,-2.9873,-2.988,-2.9899,-2.9938,-2.9963,-2.9996,-3.0032,-3.005,-3.008,-3.0109,-3.0156,-3.0156,-3.0178,-3.0191,-3.0213,-3.0243,-3.021,-3.0211,-3.0216,-3.0292,-3.0293,-3.0299,-3.0247,-3.0248,-3.0249,-3.029,0,-2.9857,-2.9915,-2.9932,-2.9981,-3.0011,-3.0022,-3.0051,-3.0078,-3.0097,-3.0126,-3.0146,-3.0179,-3.0176,-3.019,-3.0212,-3.0234,-3.0259,-3.0232,-3.0276,-3.0277,-3.0267,-3.0306,-3.0307,-3.0344,-3.0295,-3.0296,-3.0297,0,-2.9904,-2.9934,-2.9986,-3.0021,-3.0035,-3.006,-3.0096,-3.0123,-3.0155,-3.0166,-3.0192,-3.0203,-3.0239,-3.0228,-3.0279,-3.0261,-3.028,-3.0294,-3.0296,-3.0301,-3.0289,-3.0314,-3.0356,-3.0361,-3.0305,-3.0305,-3.0304,0,-2.992,-2.9973,-3.0011,-3.0027,-3.0069,-3.0087,-3.0105,-3.0136,-3.0158,-3.0189,-3.0203,-3.0239,-3.0258,-3.0286,-3.0307,-3.0297,-3.0357,-3.0348,-3.0369,-3.0368,-3.0381,-3.038,-3.0428,-3.0392,-3.0392,-3.0392,-3.0392,0,-2.9957,-2.9988,-3.0019,-3.0042,-3.0078,-3.0098,-3.0134,-3.0153,-3.0181,-3.0209,-3.0221,-3.0248,-3.0274,-3.0305,-3.0321,-3.0362,-3.037,-3.0382,-3.0386,-3.0381,-3.038,-3.0395,-3.0393,-3.0393,-3.0393,-3.0393,-3.0392,0,-2.998,-3.0002,-3.0044,-3.008,-3.009,-3.0116,-3.0147,-3.0172,-3.019,-3.0226,-3.0236,-3.0265,-3.0302,-3.0325,-3.0372,-3.0384,-3.0428,-3.0431,-3.0417,-3.042,-3.044,-3.0438,-3.0499,-3.0509,-3.0465,-3.0466,-3.0466,0,-3.0003,-3.0027,-3.0066,-3.0086,-3.0104,-3.0135,-3.0157,-3.0178,-3.02,-3.0239,-3.0259,-3.0296,-3.0327,-3.0385,-3.0412,-3.0448,-3.0453,-3.0472,-3.0459,-3.0453,-3.0455,-3.0453,-3.0457,-3.0474,-3.0475,-3.0475,-3.0475,0,-3.0041,-3.005,-3.008,-3.0115,-3.014,-3.0168,-3.0196,-3.0212,-3.0238,-3.0263,-3.03,-3.0324,-3.0372,-3.0409,-3.0448,-3.0469,-3.0477,-3.0479,-3.0486,-3.0482,-3.0473,-3.048,-3.0424,-3.0478,-3.0478,-3.0477,-3.0477,-3.0477,-3.0066,-3.0088,-3.0119,-3.0153,-3.0176,-3.0202,-3.0227,-3.0248,-3.0279,-3.0319,-3.033,-3.0369,-3.0402,-3.0455,-3.0476,-3.0508,-3.0506,-3.0516,-3.0519,-3.0521,-3.0522,-3.0467,-3.0515,-3.0515,-3.0515,-3.0515,-3.0515,0,-3.0105,-3.0126,-3.0156,-3.0195,-3.0222,-3.0226,-3.0258,-3.028,-3.0314,-3.0344,-3.0374,-3.0417,-3.0454,-3.0483,-3.0521,-3.0542,-3.0546,-3.0551,-3.055,-3.0555,-3.0521,-3.0512,-3.0546,-3.0546,-3.0546,-3.0546,-3.0546,-3.0546,-3.0129,-3.0168,-3.0181,-3.0232,-3.0253,-3.0291,-3.0309,-3.0334,-3.0357,-3.0405,-3.0435,-3.0454,-3.0484,-3.0524,-3.0558,-3.0566,-3.058,-3.0584,-3.0593,-3.0561,-3.0557,-3.0554,-3.0545,-3.0587,-3.0587,-3.0624,-3.0625,-3.0625]}]]